Location: Gniazdowice
(50.2124°N, 20.2673°E)
Time: 22:56:45
(UTC+00:00)

NPP - Pass Details

Date: 23 May 2024
Orbit: 826 x 827 km, 98.7° (Epoch: 22 June)

Event Time Altitude Azimuth Distance (km) Brightness Sun altitude
Rises 00:56:20 0° 13° (NNE) 3,381 8.3 -12.6°
Reaches altitude 10° 00:58:42 10° 11° (N) 2,443 7.3 -12.4°
Maximum altitude 01:04:04 67° 290° (WNW) 897 3.8 -11.9°
Enters shadow 01:08:28 15° 210° (SSW) 2,074 5.1 -11.5°
